GENESIS 1 (29252 NORAD) Tracking and Keplerian Element Data

This shows tracking and keplerian element data for the satellite.

Feedback or suggestion? Click here.




ElementValue
Catalog29252
NameGENESIS 1
Epoch Orbit66178
Epoch Day198.92908809
Epoch Year2018
RAAN72.3714
Inclination64.5072
Eccentricity0.0047936
Argument of Perigee282.2439
Mean Anonmoly77.3318
Mean Motion15.17371254
Decay Rate2.28E-06
L11 29252U 06029A 18198.92908809 .00000228 00000-0 21540-4 0 9997
L22 29252 64.5072 72.3714 0047936 282.2439 77.3318 15.17371254661782

Live tracking and technical data element details for GENESIS 1 (NORAD 29252). GENESIS 1 can be tracked NOW for your location showing map with azimuth and elevation plus other details from your city location.

Track the satellite on the map from your city or location and see movement details for azimuth, elevation, latitude, longitude, range, height, and movement on the map or in text.







IsCatalogInMostPopularTable: catalog: 29252, numindb: 41
Update: records affected: 1



GetName: 29252 GENESIS 1

Hit Count: updated at: Fri, 20 Jul 2018 20:26:45 GMT